Simultaneous Nadir Overpasses (SNOs) Predictions

Prediction of SNOs between GOES-15 and NPP Satellite Orbit:

Table of predicted SNOs for the next 14.0 days since TLE Epoch: 10/12/2024
Index Date Time (GOES-15) GOES-15 Lat,Lon NPP Lat,Lon Distance(km) Time Diff (sec)
1 10/12/2024 09:32:47 -0.22, 61.29 -1.00, 57.81 395.95 80
2 10/13/2024 09:16:44 -0.22, 61.29 0.02, 62.34 120.17 80
3 10/14/2024 21:38:34 0.20, 61.29 1.12, 57.05 482.61 80
4 10/15/2024 21:17:10 0.21, 61.30 0.15, 61.59 32.64 80
5 10/18/2024 09:20:24 -0.20, 61.32 -0.30, 60.80 58.51 80
6 10/19/2024 09:04:19 -0.21, 61.33 0.69, 65.34 457.33 80
7 10/20/2024 21:26:08 0.19, 61.34 0.47, 60.06 145.61 80
8 10/21/2024 21:04:44 0.20, 61.36 -0.53, 64.59 368.95 80
9 10/23/2024 09:26:40 -0.17, 61.39 -0.67, 59.29 240.06 80
10 10/24/2024 09:10:36 -0.18, 61.40 0.35, 63.82 275.41 80
11 10/25/2024 21:32:25 0.15, 61.40 0.77, 58.54 325.89 80
